Wind_Speed
24 26 28 29 28 31 33 38 42 42 45 43 42 46 43 43 43 40 39 41 40 40 40 41 43 45 48 45 43 42 47 47 47 52 55 57 61 63 67 68 63 65 68 71
19 20 23 25 25 27 29 32 34 31 33 32 30 35 33 32 34 35 35 38 40 41 43 41 43 48 48 46 44 45 47 49 52 54 57 60 65 68 68 65 67 71 73 76
15 15 16 17 20 21 19 25 29 27 32 29 30 33 34 33 30 31 36 40 43 43 42 43 44 43 42 42 42 42 47 51 53 57 61 65 68 67 68 71 74 79 82 84
15 15 15 18 21 21 23 26 26 27 26 26 25 22 23 22 27 31 35 37 38 39 40 40 39 40 41 41 44 48 52 55 58 61 63 64 66 68 70 74 79 83 86 90
13 14 14 19 21 17 17 17 19 21 23 26 24 20 21 25 29 29 33 39 41 41 46 46 44 40 42 46 50 54 55 57 59 61 61 63 65 69 74 80 85 90 94 97
13 12 13 14 14 15 17 18 21 23 25 25 22 20 20 28 30 32 36 38 37 40 43 45 47 47 48 50 52 54 57 58 59 62 64 68 72 77 81 86 91 96 100 105
8 8 7 8 9 11 14 16 17 18 22 17 17 15 15 18 21 22 24 26 28 30 34 37 41 44 48 55 57 56 56 58 62 65 69 73 77 82 86 91 96 101 105 109
8 9 7 6 4 3 3 3 4 5 7 7 11 15 18 18 19 17 22 26 32 34 38 38 41 46 48 53 57 60 63 67 71 73 76 79 81 85 90 95 101 106 113 118
15 13 11 8 5 2 3 4 7 10 11 13 15 18 19 22 24 26 29 33 35 37 42 43 46 49 52 56 59 62 65 67 69 73 77 81 87 92 97 103 109 116 121 126
11 8 5 4 3 4 6 7 10 12 14 14 15 18 21 24 27 29 31 35 38 39 43 47 47 49 53 56 60 63 65 69 73 78 83 88 94 99 106 112 116 121 128 131
7 5 2 1 4 8 9 11 15 19 22 25 24 25 26 27 31 35 36 39 42 42 44 46 50 53 57 60 62 65 69 74 78 83 89 94 102 110 114 118 123 129 131 132
8 7 6 6 8 12 15 17 19 21 24 29 28 30 34 36 38 41 43 44 45 46 48 50 51 54 56 59 63 67 72 79 83 88 96 102 108 115 120 124 127 131 128 127
10 10 10 11 12 13 16 20 23 26 27 31 35 34 38 40 42 45 47 48 48 49 51 53 54 56 59 62 67 74 79 84 91 97 103 108 113 118 123 128 129 128 127 125
12 13 13 14 15 17 21 24 28 30 34 36 39 45 44 45 47 48 52 54 56 58 60 60 60 60 62 66 71 77 83 91 96 104 110 114 118 124 129 129 126 125 124 122
15 16 16 18 20 22 26 29 30 34 36 39 44 47 49 51 53 54 55 56 57 58 61 62 61 61 65 71 77 83 89 96 104 109 114 117 122 126 126 125 123 123 120 115
18 19 20 22 23 27 31 35 35 38 43 46 50 56 55 55 55 56 58 59 59 60 60 59 60 64 70 76 84 90 96 105 109 116 120 123 125 124 125 124 123 118 110 103
22 23 25 26 29 33 35 36 39 43 49 52 57 59 58 55 57 60 60 61 60 59 59 62 67 72 78 85 91 98 103 109 116 121 124 128 128 126 123 121 115 106 99 92
26 28 28 31 34 34 35 42 45 49 54 56 59 59 57 57 58 58 58 59 60 61 64 69 75 80 87 93 99 104 110 115 118 123 127 128 126 126 122 114 104 96 90 83
30 32 34 35 34 38 42 47 51 54 60 58 61 61 60 59 58 57 58 60 63 66 71 77 82 88 93 99 104 109 114 118 125 127 126 128 126 123 114 104 96 88 81 77
34 34 35 37 42 44 48 53 56 61 64 63 65 63 62 62 60 60 60 63 68 73 78 84 89 95 99 104 108 114 118 124 128 126 125 124 123 114 106 96 88 81 77 74
34 38 42 48 50 53 54 58 62 66 63 62 66 64 61 61 63 64 67 71 76 80 85 91 95 101 105 109 114 121 126 126 129 125 123 122 115 106 97 89 82 78 74 70
40 43 49 53 57 58 62 65 68 67 66 66 69 66 64 65 66 68 72 77 81 86 91 95 100 105 110 115 120 127 128 129 129 125 123 119 109 99 91 85 79 74 69 66
47 52 56 57 60 65 68 71 72 70 70 72 74 69 67 70 71 74 78 82 87 91 96 99 104 110 117 121 129 132 131 128 126 126 119 111 101 93 86 81 76 71 66 64
55 58 61 63 67 70 71 73 73 71 73 75 75 72 71 74 75 79 83 87 92 96 100 104 110 116 122 126 133 133 129 125 126 119 111 102 94 88 81 76 71 67 64 60
62 64 67 68 73 71 71 74 74 75 77 78 73 73 75 79 82 85 88 92 97 100 105 111 116 120 125 132 133 128 126 125 119 113 101 95 88 82 77 71 67 64 61 59
68 71 74 72 75 74 76 77 77 79 81 79 77 78 81 83 87 88 93 97 102 106 112 116 122 126 130 134 128 124 122 116 109 101 94 88 82 76 72 67 64 60 59 57
Wind_Direction
213 219 225 229 233 237 240 244 247 252 256 257 261 265 266 268 269 268 272 271 263 256 258 256 257 263 268 275 274 267 271 269 272 279 284 287 289 289 290 292 295 295 295 294
211 221 226 230 235 240 246 252 257 255 260 261 261 261 268 263 265 267 259 252 251 253 256 259 262 265 268 270 271 275 280 281 282 286 290 290 289 291 293 293 294 295 292 291
204 218 220 223 228 233 236 246 249 248 249 251 246 247 253 260 258 254 256 260 267 269 266 266 267 271 273 274 277 278 281 284 287 288 288 289 292 295 296 295 294 295 293 294
190 202 211 218 224 232 235 233 241 252 258 260 257 260 264 270 263 261 271 276 280 279 279 277 275 279 285 285 285 282 281 284 288 289 290 293 295 297 297 296 296 296 296 296
181 201 205 210 221 224 228 241 248 254 262 269 269 263 273 273 272 279 282 282 283 288 291 292 293 287 287 288 285 286 292 293 293 294 295 295 296 295 296 298 299 299 299 298
182 194 202 213 227 244 254 251 256 264 268 270 278 286 278 273 276 274 271 273 277 279 283 286 286 290 291 290 290 293 294 297 297 297 296 296 296 297 299 300 301 300 299 300
185 207 211 219 231 237 249 261 271 272 273 291 296 293 284 281 278 277 280 281 280 278 278 282 287 289 291 293 294 295 295 296 296 293 292 293 296 300 302 302 300 299 299 298
159 166 166 171 187 204 240 293 308 311 314 322 311 308 308 296 291 291 292 294 294 294 290 286 286 285 286 290 294 295 296 297 298 299 300 301 302 300 300 300 298 297 296 296
134 132 130 127 112 87 11 338 328 323 317 321 322 321 318 316 313 306 300 291 285 287 290 288 286 288 289 291 293 294 295 296 298 298 298 297 296 296 296 297 299 300 300 301
133 126 110 82 34 353 329 328 320 307 291 289 291 292 294 293 296 299 298 297 295 292 291 294 298 298 295 294 293 295 297 298 297 296 296 296 296 298 301 302 302 302 304 305
135 128 119 323 300 300 298 292 292 292 294 292 289 294 294 300 308 311 312 308 306 303 299 301 301 300 300 300 297 296 296 297 298 300 302 303 304 304 306 306 305 306 308 307
187 215 236 268 297 310 318 309 298 297 309 314 313 314 313 312 312 311 310 308 306 305 305 304 302 300 301 300 300 301 300 302 305 305 305 307 308 308 306 308 308 308 309 310
230 248 265 282 301 303 305 311 315 319 316 317 315 311 314 315 314 314 314 313 310 308 309 308 305 305 306 306 305 304 304 306 306 309 312 310 310 309 308 308 310 312 312 311
259 268 280 289 294 304 317 324 322 322 321 321 321 319 317 315 314 313 312 312 313 313 313 312 310 307 307 306 303 303 306 308 309 311 311 311 310 310 311 312 313 313 313 312
269 280 288 300 306 308 312 311 312 318 321 323 324 321 318 316 314 312 309 308 307 309 309 307 307 307 306 305 307 308 309 311 313 312 312 312 312 312 312 314 315 315 314 312
273 277 285 294 302 308 309 309 316 319 317 314 316 316 311 308 307 307 306 307 308 310 308 307 306 307 307 308 312 313 313 314 313 313 313 313 313 314 316 317 317 314 313 312
279 283 288 294 299 302 306 312 315 317 319 317 317 313 311 306 306 308 310 309 310 310 309 310 310 310 312 314 315 315 315 314 314 315 315 315 315 318 318 318 316 315 314 313
283 287 291 296 296 301 308 311 315 317 316 317 317 314 311 308 307 309 309 308 309 309 310 311 313 314 315 317 317 316 316 316 317 317 316 316 319 320 320 318 316 316 315 315
284 288 294 292 295 300 303 309 313 314 314 317 318 312 308 307 308 308 309 308 307 308 309 311 315 315 316 317 317 317 317 316 317 316 317 319 319 320 319 318 317 317 317 316
286 289 287 289 296 301 305 308 311 312 315 318 319 313 310 309 310 309 307 306 307 308 310 312 314 317 318 318 317 318 316 316 317 317 319 319 319 320 320 319 319 319 319 317
284 286 289 294 298 301 304 306 308 309 312 315 316 310 308 308 309 308 308 309 309 311 313 314 316 317 316 317 319 318 318 319 318 319 319 320 321 321 320 320 321 321 320 318
291 292 293 297 297 299 301 306 307 308 311 314 314 311 308 306 306 307 308 309 311 311 313 316 316 316 316 317 318 321 320 319 319 319 321 321 322 322 322 322 322 321 320 319
289 291 290 291 294 298 302 303 305 308 310 313 312 309 305 304 305 307 308 310 311 314 316 314 315 315 317 317 320 321 320 320 320 320 320 321 322 322 322 323 322 321 321 321
286 285 285 288 295 298 300 301 304 305 307 307 308 304 302 303 307 308 310 311 314 315 315 315 314 315 317 319 319 320 319 320 319 319 320 321 321 322 322 323 322 322 321 323
284 283 285 292 293 297 297 299 301 303 305 305 302 302 304 307 309 310 312 313 314 315 316 315 315 316 317 319 319 318 319 319 318 318 320 321 321 322 322 323 323 322 322 323
283 286 291 294 294 295 297 299 302 303 304 303 302 303 305 306 308 310 311 312 315 315 315 315 315 317 318 318 317 318 318 317 317 318 320 321 321 322 323 323 322 323 323 323
Height
10649 10652 10655 10660 10664 10666 10670 10668 10669 10674 10675 10678 10679 10675 10681 10682 10682 10683 10683 10679 10677 10676 10677 10674 10671 10667 10663 10665 10663 10658 10652 10650 10649 10640 10632 10626 10618 10613 10606 10600 10594 10588 10580 10574
10646 10650 10653 10656 10660 10661 10662 10662 10663 10668 10667 10669 10673 10668 10671 10675 10675 10675 10673 10668 10666 10668 10668 10665 10663 10658 10655 10655 10654 10650 10643 10639 10634 10629 10620 10612 10605 10600 10593 10586 10579 10573 10565 10558
10644 10647 10650 10653 10654 10656 10660 10658 10657 10661 10660 10664 10666 10665 10667 10671 10672 10667 10662 10659 10658 10659 10658 10658 10654 10650 10646 10645 10642 10637 10630 10625 10622 10616 10609 10601 10593 10584 10577 10569 10561 10553 10544 10537
10640 10643 10646 10649 10650 10653 10655 10657 10655 10655 10655 10656 10658 10663 10664 10666 10663 10660 10657 10654 10652 10648 10646 10645 10643 10639 10636 10632 10629 10625 10621 10617 10613 10605 10595 10588 10580 10570 10562 10554 10544 10533 10525 10516
10640 10643 10647 10648 10648 10650 10651 10651 10651 10652 10652 10650 10654 10659 10661 10659 10658 10658 10654 10648 10644 10641 10636 10631 10629 10628 10625 10621 10615 10609 10609 10603 10596 10589 10581 10572 10565 10557 10547 10537 10526 10514 10502 10489
10638 10641 10643 10645 10646 10647 10648 10649 10649 10649 10648 10649 10652 10655 10656 10652 10652 10651 10646 10645 10642 10636 10632 10627 10619 10616 10613 10610 10605 10600 10595 10589 10580 10573 10566 10556 10546 10537 10529 10518 10504 10489 10476 10460
10636 10638 10640 10642 10643 10645 10644 10644 10645 10645 10644 10648 10649 10649 10649 10647 10645 10642 10641 10637 10633 10630 10626 10622 10617 10611 10604 10597 10593 10590 10583 10576 10568 10559 10550 10543 10534 10523 10510 10498 10484 10470 10457 10442
10635 10637 10639 10640 10642 10643 10643 10643 10643 10643 10644 10645 10645 10643 10640 10639 10639 10639 10634 10629 10624 10622 10619 10618 10614 10607 10601 10592 10583 10575 10567 10557 10549 10541 10533 10524 10515 10505 10492 10479 10465 10449 10434 10418
10636 10638 10640 10641 10642 10642 10642 10642 10642 10641 10641 10641 10640 10638 10637 10634 10632 10630 10627 10622 10619 10616 10610 10608 10602 10598 10593 10582 10573 10564 10555 10547 10539 10530 10522 10511 10498 10486 10472 10457 10443 10425 10404 10385
10637 10638 10639 10640 10640 10641 10641 10641 10640 10638 10639 10640 10639 10635 10631 10628 10626 10624 10620 10614 10609 10605 10599 10593 10589 10583 10574 10567 10559 10551 10542 10533 10524 10515 10505 10491 10476 10464 10450 10433 10412 10392 10372 10349
10636 10638 10639 10639 10640 10639 10639 10639 10637 10635 10632 10631 10633 10628 10624 10621 10617 10611 10607 10601 10595 10592 10588 10583 10576 10569 10561 10552 10543 10534 10526 10516 10506 10496 10480 10465 10447 10429 10413 10397 10376 10355 10337 10312
10636 10637 10638 10639 10638 10637 10635 10634 10633 10631 10627 10623 10622 10620 10613 10610 10607 10602 10597 10591 10584 10579 10574 10569 10562 10556 10548 10537 10527 10517 10506 10495 10484 10471 10457 10442 10422 10402 10383 10366 10348 10326 10301 10280
10634 10635 10635 10635 10635 10634 10632 10629 10625 10624 10622 10618 10612 10612 10606 10601 10597 10589 10584 10578 10572 10566 10560 10553 10546 10539 10531 10522 10510 10496 10484 10473 10461 10449 10435 10417 10400 10378 10357 10335 10313 10292 10270 10248
10631 10631 10631 10630 10630 10628 10626 10623 10620 10618 10615 10610 10606 10596 10596 10592 10586 10579 10572 10565 10558 10550 10543 10537 10532 10525 10516 10506 10494 10483 10472 10458 10442 10427 10408 10390 10372 10349 10324 10303 10284 10261 10236 10213
10627 10626 10626 10625 10623 10622 10620 10618 10617 10614 10609 10604 10598 10592 10584 10578 10572 10567 10562 10558 10551 10544 10536 10528 10520 10512 10503 10492 10481 10469 10453 10436 10420 10401 10382 10366 10346 10322 10299 10277 10254 10229 10207 10185
10622 10621 10621 10620 10618 10616 10613 10609 10607 10604 10598 10595 10591 10584 10577 10570 10565 10559 10552 10545 10538 10531 10522 10514 10506 10499 10489 10477 10464 10449 10432 10414 10396 10376 10356 10337 10316 10294 10269 10244 10224 10201 10181 10161
10616 10616 10615 10613 10612 10609 10605 10601 10599 10596 10588 10582 10578 10572 10566 10560 10552 10544 10536 10528 10521 10514 10506 10499 10491 10481 10470 10457 10443 10427 10411 10392 10372 10349 10326 10303 10281 10261 10239 10216 10195 10175 10156 10139
10610 10608 10607 10606 10603 10601 10598 10591 10589 10584 10578 10573 10565 10557 10551 10544 10537 10531 10523 10515 10507 10499 10492 10484 10475 10463 10451 10437 10423 10406 10387 10365 10344 10322 10298 10274 10254 10232 10211 10190 10171 10152 10135 10119
10603 10601 10598 10596 10594 10592 10589 10583 10578 10573 10564 10562 10554 10545 10539 10535 10526 10518 10510 10502 10493 10486 10478 10469 10459 10446 10433 10417 10400 10382 10361 10339 10320 10298 10276 10250 10226 10209 10187 10167 10148 10131 10115 10101
10594 10592 10589 10587 10585 10583 10579 10572 10567 10560 10552 10546 10538 10529 10522 10514 10510 10503 10496 10489 10481 10472 10462 10452 10439 10424 10409 10395 10378 10359 10339 10318 10293 10269 10250 10228 10203 10182 10162 10144 10127 10111 10096 10081
10586 10584 10580 10576 10573 10570 10568 10563 10557 10549 10545 10538 10528 10519 10513 10505 10496 10488 10480 10471 10462 10451 10441 10430 10417 10402 10387 10372 10355 10336 10314 10289 10263 10242 10224 10202 10180 10161 10141 10124 10108 10093 10080 10066
10575 10573 10568 10564 10559 10559 10553 10548 10542 10535 10530 10524 10515 10507 10500 10493 10484 10475 10467 10457 10446 10435 10424 10411 10397 10380 10363 10349 10332 10310 10288 10263 10238 10215 10197 10175 10156 10138 10122 10104 10090 10077 10065 10052
10564 10560 10556 10552 10547 10543 10540 10534 10528 10523 10515 10507 10500 10494 10488 10478 10471 10463 10452 10441 10430 10418 10406 10392 10376 10359 10340 10321 10300 10281 10259 10237 10212 10190 10172 10153 10136 10119 10105 10088 10075 10062 10050 10038
10550 10547 10543 10539 10535 10528 10525 10518 10515 10509 10503 10495 10486 10478 10472 10462 10456 10446 10435 10424 10412 10400 10386 10371 10354 10336 10318 10296 10275 10253 10232 10213 10190 10168 10152 10134 10119 10102 10088 10075 10061 10049 10036 10026
10531 10530 10526 10527 10519 10518 10510 10505 10501 10495 10487 10477 10469 10461 10452 10444 10435 10426 10416 10405 10392 10379 10364 10347 10329 10312 10294 10273 10252 10233 10211 10188 10167 10147 10133 10117 10103 10087 10073 10061 10049 10037 10025 10015
10513 10511 10510 10510 10500 10498 10494 10488 10483 10475 10467 10458 10449 10442 10436 10428 10418 10409 10397 10384 10370 10356 10339 10322 10303 10287 10269 10248 10229 10213 10192 10171 10151 10131 10116 10101 10087 10073 10059 10048 10037 10026 10014 10004